This demonstration page uses our WeatherBlox Daily Observations layout. Learn more.

Left ArrowRight Arrow

39.95238, -75.16362

Hourly Observations for May 8, 2018

Temp ( °F °C ) Dew Point ( °F °C ) Humidity (%) Winds ( mph kmh ) Pressure ( in mb ) Visibility ( mi km ) Precip ( " mm )
12:54 am 00:54 Mostly Clear 56 13.3 49 9.4 77 77 E 6 9 30.20 1023 10 16 0.00 0.00
1:54 am 01:54 Mostly Clear 54 12.2 49 9.4 83 83 E 7 11 30.20 1023 10 16 0.00 0.00
2:54 am 02:54 Partly Cloudy 53 11.7 48 8.9 83 83 ENE 3 6 30.20 1023 10 16 0.00 0.00
3:54 am 03:54 Partly Cloudy 51 10.6 47 8.3 86 86 NE 3 6 30.21 1023 10 16 0.00 0.00
4:54 am 04:54 Partly Cloudy 52 11.1 48 8.9 86 86 NE 3 6 30.21 1023 10 16 0.00 0.00
5:54 am 05:54 Partly Cloudy 53 11.7 48 8.9 83 83 Calm 30.23 1024 10 16 0.00 0.00
6:54 am 06:54 Partly Cloudy 54 12.2 49 9.4 83 83 ENE 6 9 30.25 1024 10 16 0.00 0.00
7:54 am 07:54 Mostly Sunny 57 13.9 49 9.4 74 74 NE 9 15 30.27 1025 10 16 0.00 0.00
8:54 am 08:54 Sunny 60 15.6 49 9.4 67 67 NNE 9 15 30.26 1025 10 16 0.00 0.00
9:54 am 09:54 Sunny 64 17.8 49 9.4 58 58 ENE 8 13 30.26 1025 10 16 0.00 0.00
10:54 am 10:54 Sunny 68 20 51 10.6 55 55 VRB 6 9 30.25 1024 10 16 0.00 0.00
11:54 am 11:54 Sunny 70 21.1 49 9.4 47 47 ENE 9 15 30.25 1024 10 16 0.00 0.00
12:54 pm 12:54 Mostly Sunny 73 22.8 49 9.4 43 43 NE 8 13 30.23 1024 10 16 0.00 0.00
1:54 pm 13:54 Mostly Sunny 74 23.3 47 8.3 38 38 VRB 6 9 30.22 1023 10 16 0.00 0.00
2:54 pm 14:54 Mostly Sunny 76 24.4 45 7.2 33 33 E 7 11 30.19 1022 10 16 0.00 0.00
3:54 pm 15:54 Partly Cloudy 76 24.4 45 7.2 33 33 E 10 17 30.17 1022 10 16 0.00 0.00
4:54 pm 16:54 Partly Cloudy 76 24.4 44 6.7 32 32 E 9 15 30.16 1022 10 16 0.00 0.00
5:54 pm 17:54 Partly Cloudy 74 23.3 45 7.2 36 36 E 9 15 30.17 1022 10 16 0.00 0.00
6:54 pm 18:54 Partly Cloudy 71 21.7 46 7.8 41 41 ESE 8 13 30.16 1021 10 16 0.00 0.00
7:54 pm 19:54 Partly Cloudy 67 19.4 44 6.7 44 44 ESE 9 15 30.17 1022 10 16 0.00 0.00
8:54 pm 20:54 Mostly Clear 63 17.2 49 9.4 60 60 ESE 8 13 30.18 1022 10 16 0.00 0.00
9:54 pm 21:54 Clear 61 16.1 48 8.9 63 63 SSE 5 7 30.20 1023 10 16 0.00 0.00
10:54 pm 22:54 Clear 59 15 48 8.9 67 67 SE 5 7 30.20 1023 10 16 0.00 0.00
11:54 pm 23:54 Clear 56 13.3 48 8.9 75 75 Calm 30.19 1022 10 16 0.00 0.00

Powered by AerisWeather